カタログに戻る

THORAD DELTA 1 DEB

運用中LEO
NORAD 8169·DEBRIS·🇺🇸 United States

打ち上げ Nov 15, 1974 から Vandenberg Space Force Base

Loading…

次のパス (今後24時間)

TLE

最新Source: Space-Track

元期: Sep 14, 2026, 23:18 UTC

1 08169U 74089AK  26257.97143078  .00000505  00000-0  19441-2 0  9994
2 08169 102.5178 262.0741 0125066 328.3095  58.7906 12.94576444412392

AllMySatでTHORAD DELTA 1 DEBをリアルタイム追跡

Download on the App Store